TJS-14

Last updated on Mon Jun 22 2026 00:03:08 GMT+0000 (Coordinated Universal Time)

1 62804U 25017A 26172.53628539 .00000115 00000+0 00000+0 0 9999 2 62804 0.7716 295.9577 0000830 276.0073 269.2860 1.00276757 5310
UTC large
Height (km)
Speed (km/s)
/
Latitude / Longitude
Inclination (degrees)
Orbital Period (minutes)
Azimuth
Elevation
Range (km)
Doppler Factor

Next 0 passes for location: London (51.5072 / 0.1276)

No passes found over London.
TJS-14